Regional Weather Roundup
Issued by NWS

Home | Current Version | Previous Version | Text Only | Print | Product List | Glossary On
Versions: 1 2 3 4 5 6 7 8 9 10 11 12 13 14 15 16 17 18 19 20 21 22 23 24 25 26 27 28 29 30 31 32 33 34 35 36 37 38 39 40 41 42 43 44 45 46 47 48 49 50
000
ASUS44 KLIX 280711
RWRLA
LOUISIANA WEATHER ROUNDUP
NATIONAL WEATHER SERVICE NEW ORLEANS LA
200 AM CDT FRI AUG 28 2015

NOTE: "FAIR" INDICATES FEW OR NO CLOUDS BELOW 12,000 FEET WITH NO
      SIGNIFICANT WEATHER AND/OR OBSTRUCTIONS TO VISIBILITY.
      SKY/WX - SKY CONDITION AND SIGNIFICANT WEATHER.
      TMP - AIR TEMPERATURE.    DP   - DEWPOINT TEMPERATURE.
      RH  - RELATIVE HUMIDITY.  PRES - PRESSURE.
      HX  - HEAT INDEX.         WCI  - WIND CHILL INDEX.

*  THESE STATIONS ARE NOT NWS OR FAA STATIONS AND ARE NOT UNDER
   NWS QUALITY CONTROL.

LAZ040-048-061>063-065-066-069-280800-
SOUTHEAST LOUISIANA

CITY           SKY/WX    TMP DP  RH WIND       PRES   REMARKS
N.O. AUDUBON   NOT AVBL
N.O. INTL ARPT CLEAR     73  62  68 CALM      29.97S
N.O. LAKEFRONT CLEAR     78  64  61 E3        29.97F
N.O. DOWNTOWN* FAIR      79  64  61 CALM      29.98S
RESERVE*       FAIR      69  66  90 CALM      29.97F
SLIDELL        CLEAR     65  63  93 CALM      29.97S
BATON ROUGE    CLEAR     68  60  75 N5        29.98F
BOOTHVILLE     CLEAR     75  67  76 W5        29.96F
BELLE CHASSE   CLEAR     66  64  93 CALM      29.96F
BOGALUSA*      NOT AVBL
GALLIANO*      SUNNY     70  65  83 CALM      29.96F
NEW ROADS*     FAIR      66  62  88 CALM      29.98F
GONZALES*      FAIR      66  66 100 CALM      29.97F
HAMMOND*       CLEAR     66  59  77 CALM      30.00S
HOUMA*         CLEAR     67  66  97 CALM      29.97F
PORT FOURCHON* SUNNY     77  66  69 N7        29.96F

$$

LAZ041-044-053-054-280800-
SOUTHWEST LOUISIANA

CITY           SKY/WX    TMP DP  RH WIND       PRES   REMARKS
LAKE CHARLES   PTCLDY    70  65  84 CALM      29.98F
LAFAYETTE      CLEAR     68  65  90 CALM      29.98F
PATTERSON      CLEAR     66  61  82 CALM      29.99S
SALT POINT       N/A     72  67  84 CALM      29.96S
NEW IBERIA     CLEAR     66  63  90 CALM      29.98F
CHENAULT AIRPK PTCLDY    68  66  93 CALM      29.99F

$$

LAZ027-028-280800-
CENTRAL LOUISIANA

CITY           SKY/WX    TMP DP  RH WIND       PRES   REMARKS
FORT POLK      PTCLDY    70  59  68 NE2       30.00S
ALEXANDRIA INT CLEAR     62  59  90 CALM      29.99F
ALEXANDRIA     CLEAR     63  58  83 CALM      30.01F

$$

LAZ001-002-280800-
NORTHWEST LOUISIANA

CITY           SKY/WX    TMP DP  RH WIND       PRES   REMARKS
SHREVEPORT     CLEAR     69  61  75 E5        30.02S
BARKSDALE AFB  CLEAR     68  62  82 CALM      30.02S
DTN SHREVEPORT CLEAR     69  63  81 CALM      30.02S

$$

LAZ014-016-280800-
NORTHEAST LOUISIANA

CITY           SKY/WX    TMP DP  RH WIND       PRES   REMARKS
MONROE         CLEAR     68  60  75 NE7       30.03S
TALLULAH       CLEAR     62  59  90 CALM      30.02S

$$



USA.gov is the U.S. government's official web portal to all federal, state and local government web resources and services.